| time (UTC) | temp F | wind direction | speed MPH | gust MPH | rain 1hr in | rain 24hr in | rain mn in | humidity % | barometer mb |
| 20260505211535 | 82 | 188 | 8.0 | 18.0 | 0.00 | 0.00 | 0.00 | 33 | 1008.6 |
| 20260505211023 | 82 | 156 | 9.0 | 18.0 | 0.00 | 0.00 | 0.00 | 36 | 1008.6 |
| 20260505210521 | 82 | 151 | 7.0 | 15.0 | 0.00 | 0.00 | 0.00 | 36 | 1008.5 |
| 20260505210043 | 82 | 207 | 5.0 | 14.0 | 0.00 | 0.00 | 0.00 | 36 | 1008.6 |
| 20260505205526 | 82 | 163 | 8.0 | 20.0 | 0.00 | 0.00 | 0.00 | 37 | 1008.3 |
| 20260505205026 | 82 | 229 | 6.0 | 21.0 | 0.00 | 0.00 | 0.00 | 37 | 1008.5 |
| 20260505204542 | 82 | 161 | 7.0 | 21.0 | 0.00 | 0.00 | 0.00 | 37 | 1008.3 |
| 20260505204025 | 82 | 190 | 10.0 | 19.0 | 0.00 | 0.00 | 0.00 | 36 | 1008.4 |
| 20260505203522 | 83 | 236 | 5.0 | 15.0 | 0.00 | 0.00 | 0.00 | 38 | 1008.4 |
| 20260505203039 | 82 | 235 | 5.0 | 19.0 | 0.00 | 0.00 | 0.00 | 38 | 1008.5 |
| 20260505202525 | 82 | 122 | 7.0 | 20.0 | 0.00 | 0.00 | 0.00 | 38 | 1008.5 |
| 20260505202024 | 82 | 184 | 10.0 | 20.0 | 0.00 | 0.00 | 0.00 | 37 | 1008.5 |
| 20260505201535 | 82 | 213 | 8.0 | 17.0 | 0.00 | 0.00 | 0.00 | 36 | 1008.5 |
| 20260505201022 | 83 | 139 | 8.0 | 18.0 | 0.00 | 0.00 | 0.00 | 37 | 1008.5 |
| 20260505200525 | 83 | 146 | 5.0 | 18.0 | 0.00 | 0.00 | 0.00 | 37 | 1008.6 |
| 20260505200037 | 83 | 212 | 7.0 | 17.0 | 0.00 | 0.00 | 0.00 | 35 | 1008.6 |
| 20260505195524 | 83 | 230 | 6.0 | 17.0 | 0.00 | 0.00 | 0.00 | 37 | 1008.6 |
| 20260505195024 | 83 | 205 | 6.0 | 15.0 | 0.00 | 0.00 | 0.00 | 37 | 1008.7 |
| 20260505194542 | 82 | 160 | 5.0 | 15.0 | 0.00 | 0.00 | 0.00 | 38 | 1008.8 |
| 20260505194026 | 83 | 188 | 8.0 | 16.0 | 0.00 | 0.00 | 0.00 | 37 | 1008.9 |
| 20260505193521 | 83 | 187 | 5.0 | 17.0 | 0.00 | 0.00 | 0.00 | 36 | 1008.9 |
| 20260505193042 | 83 | 146 | 9.0 | 17.0 | 0.00 | 0.00 | 0.00 | 36 | 1008.9 |
| 20260505192525 | 83 | 149 | 4.0 | 20.0 | 0.00 | 0.00 | 0.00 | 37 | 1009.0 |
| 20260505192025 | 83 | 129 | 6.0 | 21.0 | 0.00 | 0.00 | 0.00 | 37 | 1008.9 |
| 20260505191540 | 83 | 171 | 6.0 | 23.0 | 0.00 | 0.00 | 0.00 | 36 | 1009.0 |
| 20260505191025 | 83 | 184 | 8.0 | 23.0 | 0.00 | 0.00 | 0.00 | 37 | 1009.2 |
| 20260505190528 | 83 | 173 | 7.0 | 16.0 | 0.00 | 0.00 | 0.00 | 37 | 1009.1 |
| 20260505190046 | 83 | 158 | 7.0 | 14.0 | 0.00 | 0.00 | 0.00 | 36 | 1009.1 |
| 20260505185522 | 83 | 181 | 6.0 | 14.0 | 0.00 | 0.00 | 0.00 | 39 | 1009.2 |
| 20260505185022 | 83 | 213 | 4.0 | 15.0 | 0.00 | 0.00 | 0.00 | 38 | 1009.4 |
| 20260505184535 | 83 | 205 | 8.0 | 17.0 | 0.00 | 0.00 | 0.00 | 37 | 1009.5 |
| 20260505184021 | 83 | 234 | 4.0 | 17.0 | 0.00 | 0.00 | 0.00 | 40 | 1009.4 |
| 20260505183522 | 83 | 205 | 8.0 | 17.0 | 0.00 | 0.00 | 0.00 | 38 | 1009.6 |
| 20260505183048 | 82 | 252 | 4.0 | 14.0 | 0.00 | 0.00 | 0.00 | 38 | 1009.6 |
| 20260505182522 | 82 | 154 | 5.0 | 16.0 | 0.00 | 0.00 | 0.00 | 40 | 1009.8 |
| 20260505182022 | 83 | 167 | 5.0 | 16.0 | 0.00 | 0.00 | 0.00 | 40 | 1009.8 |
| 20260505181544 | 83 | 188 | 7.0 | 15.0 | 0.00 | 0.00 | 0.00 | 37 | 1009.8 |
| 20260505181023 | 83 | 236 | 4.0 | 11.0 | 0.00 | 0.00 | 0.00 | 39 | 1009.9 |
| 20260505180525 | 82 | 360 | 3.0 | 11.0 | 0.00 | 0.00 | 0.00 | 42 | 1009.9 |
| 20260505180041 | 82 | 220 | 4.0 | 11.0 | 0.00 | 0.00 | 0.00 | 40 | 1010.0 |
| 20260505175522 | 82 | 198 | 3.0 | 11.0 | 0.00 | 0.00 | 0.00 | 43 | 1010.2 |
| 20260505175025 | 82 | 163 | 6.0 | 14.0 | 0.00 | 0.00 | 0.00 | 41 | 1010.2 |
| 20260505174536 | 81 | 213 | 6.0 | 16.0 | 0.00 | 0.00 | 0.00 | 41 | 1010.2 |
| 20260505174025 | 82 | 189 | 5.0 | 16.0 | 0.00 | 0.00 | 0.00 | 41 | 1010.3 |
| 20260505173523 | 82 | 0 | 4.0 | 11.0 | 0.00 | 0.00 | 0.00 | 41 | 1010.3 |
| 20260505173046 | 81 | 180 | 4.0 | 11.0 | 0.00 | 0.00 | 0.00 | 41 | 1010.4 |
| 20260505172524 | 81 | 182 | 5.0 | 11.0 | 0.00 | 0.00 | 0.00 | 44 | 1010.4 |
| 20260505172021 | 81 | 231 | 3.0 | 8.0 | 0.00 | 0.00 | 0.00 | 46 | 1010.4 |
| 20260505171543 | 81 | 277 | 3.0 | 9.0 | 0.00 | 0.00 | 0.00 | 43 | 1010.4 |
| 20260505171026 | 81 | 282 | 2.0 | 11.0 | 0.00 | 0.00 | 0.00 | 44 | 1010.5 |
| 20260505170521 | 81 | 167 | 3.0 | 12.0 | 0.00 | 0.00 | 0.00 | 42 | 1010.6 |
| 20260505170042 | 81 | 209 | 3.0 | 12.0 | 0.00 | 0.00 | 0.00 | 44 | 1010.5 |
| 20260505165525 | 81 | 126 | 2.0 | 12.0 | 0.00 | 0.00 | 0.00 | 45 | 1010.6 |
| 20260505165023 | 80 | 192 | 5.0 | 12.0 | 0.00 | 0.00 | 0.00 | 43 | 1010.5 |
| 20260505164538 | 79 | 5 | 5.0 | 15.0 | 0.00 | 0.00 | 0.00 | 44 | 1010.6 |
| 20260505164025 | 79 | 175 | 2.0 | 15.0 | 0.00 | 0.00 | 0.00 | 47 | 1010.7 |
| 20260505163521 | 79 | 97 | 5.0 | 12.0 | 0.00 | 0.00 | 0.00 | 46 | 1010.7 |
| 20260505163036 | 79 | 198 | 5.0 | 10.0 | 0.00 | 0.00 | 0.00 | 46 | 1010.7 |
| 20260505162525 | 79 | 139 | 3.0 | 10.0 | 0.00 | 0.00 | 0.00 | 46 | 1010.9 |
| 20260505162025 | 79 | 170 | 4.0 | 12.0 | 0.00 | 0.00 | 0.00 | 44 | 1010.8 |
| 20260505161544 | 79 | 161 | 3.0 | 12.0 | 0.00 | 0.00 | 0.00 | 47 | 1010.9 |
| 20260505161026 | 79 | 178 | 3.0 | 11.0 | 0.00 | 0.00 | 0.00 | 48 | 1010.9 |
| 20260505160525 | 78 | 223 | 3.0 | 12.0 | 0.00 | 0.00 | 0.00 | 50 | 1011.1 |
| 20260505153040 | 76 | 236 | 2.0 | 9.0 | 0.00 | 0.00 | 0.00 | 50 | 1011.5 |
| 20260505152524 | 76 | 148 | 4.0 | 7.0 | 0.00 | 0.00 | 0.00 | 49 | 1011.4 |
| 20260505152026 | 77 | 225 | 3.0 | 9.0 | 0.00 | 0.00 | 0.00 | 51 | 1011.6 |
| 20260505151546 | 76 | 209 | 3.0 | 10.0 | 0.00 | 0.00 | 0.00 | 52 | 1011.5 |
| 20260505151022 | 75 | 194 | 2.0 | 10.0 | 0.00 | 0.00 | 0.00 | 51 | 1011.4 |
| 20260505150521 | 75 | 192 | 2.0 | 11.0 | 0.00 | 0.00 | 0.00 | 52 | 1011.4 |
| 20260505140522 | 71 | 203 | 4.0 | 10.0 | 0.00 | 0.00 | 0.00 | 56 | 1012.1 |
| 20260505125024 | 67 | 192 | 4.0 | 11.0 | 0.00 | 0.00 | 0.00 | 62 | 1011.9 |
| 20260505124548 | 66 | 176 | 4.0 | 11.0 | 0.00 | 0.00 | 0.00 | 63 | 1011.9 |
| 20260505124024 | 66 | 154 | 1.0 | 12.0 | 0.00 | 0.00 | 0.00 | 65 | 1011.9 |
| 20260505123527 | 65 | 175 | 5.0 | 12.0 | 0.00 | 0.00 | 0.00 | 66 | 1012.0 |
| 20260505123042 | 63 | 140 | 2.0 | 7.0 | 0.00 | 0.00 | 0.00 | 72 | 1011.8 |
| 20260505122525 | 62 | 187 | 2.0 | 7.0 | 0.00 | 0.00 | 0.00 | 74 | 1011.9 |
| 20260505122026 | 61 | 161 | 3.0 | 7.0 | 0.00 | 0.00 | 0.00 | 78 | 1011.9 |
| 20260505121542 | 60 | 141 | 1.0 | 5.0 | 0.00 | 0.00 | 0.00 | 81 | 1012.0 |
| 20260505121025 | 59 | 148 | 2.0 | 5.0 | 0.00 | 0.00 | 0.00 | 84 | 1012.0 |
| 20260505120524 | 58 | 172 | 0.0 | 3.0 | 0.00 | 0.00 | 0.00 | 86 | 1011.8 |
| 20260505120047 | 58 | 189 | 0.0 | 3.0 | 0.00 | 0.00 | 0.00 | 86 | 1011.8 |
| 20260505115524 | 57 | 0 | 0.0 | 1.0 | 0.00 | 0.00 | 0.00 | 87 | 1011.7 |
| 20260505115026 | 57 | 0 | 0.0 | 1.0 | 0.00 | 0.00 | 0.00 | 87 | 1011.8 |
| 20260505114546 | 56 | 184 | 0.0 | 1.0 | 0.00 | 0.00 | 0.00 | 87 | 1011.8 |
| 20260505114128 | 56 | 0 | 0.0 | 1.0 | 0.00 | 0.00 | 0.00 | 87 | 1011.7 |
| 20260505113526 | 56 | 0 | 0.0 | 0.0 | 0.00 | 0.00 | 0.00 | 87 | 1011.7 |
| 20260505113038 | 55 | 0 | 0.0 | 0.0 | 0.00 | 0.00 | 0.00 | 87 | 1011.8 |
| 20260505112529 | 55 | 0 | 0.0 | 0.0 | 0.00 | 0.00 | 0.00 | 87 | 1011.8 |
| 20260505112025 | 55 | 0 | 0.0 | 0.0 | 0.00 | 0.00 | 0.00 | 87 | 1011.8 |
| 20260505111536 | 55 | 0 | 0.0 | 0.0 | 0.00 | 0.00 | 0.00 | 87 | 1011.9 |
| 20260505111024 | 55 | 0 | 0.0 | 0.0 | 0.00 | 0.00 | 0.00 | 86 | 1011.7 |
| 20260505110526 | 55 | 0 | 0.0 | 1.0 | 0.00 | 0.00 | 0.00 | 87 | 1011.7 |
| 20260505102029 | 56 | 0 | 0.0 | 0.0 | 0.00 | 0.00 | 0.00 | 83 | 1011.2 |
| 20260505101543 | 56 | 0 | 0.0 | 0.0 | 0.00 | 0.00 | 0.00 | 82 | 1011.2 |
| 20260505101026 | 56 | 0 | 0.0 | 0.0 | 0.00 | 0.00 | 0.00 | 82 | 1011.1 |
| 20260505100525 | 56 | 0 | 0.0 | 0.0 | 0.00 | 0.00 | 0.00 | 82 | 1011.1 |
| 20260505100037 | 56 | 0 | 0.0 | 1.0 | 0.00 | 0.00 | 0.00 | 82 | 1011.2 |
| 20260505095526 | 56 | 0 | 0.0 | 2.0 | 0.00 | 0.00 | 0.00 | 82 | 1011.1 |
| 20260505095024 | 56 | 0 | 0.0 | 2.0 | 0.00 | 0.00 | 0.00 | 82 | 1011.1 |
| 20260505094534 | 56 | 0 | 0.0 | 2.0 | 0.00 | 0.00 | 0.00 | 81 | 1011.1 |
| 20260505094024 | 56 | 184 | 0.0 | 2.0 | 0.00 | 0.00 | 0.00 | 81 | 1011.0 |
| 20260505093526 | 56 | 0 | 0.0 | 2.0 | 0.00 | 0.00 | 0.00 | 81 | 1011.0 |
| 20260505093041 | 56 | 0 | 0.0 | 2.0 | 0.00 | 0.00 | 0.00 | 80 | 1011.0 |
| 20260505092521 | 57 | 0 | 0.0 | 1.0 | 0.00 | 0.00 | 0.00 | 80 | 1010.9 |
| 20260505092026 | 57 | 0 | 0.0 | 1.0 | 0.00 | 0.00 | 0.00 | 80 | 1010.8 |
| 20260505091538 | 57 | 0 | 0.0 | 1.0 | 0.00 | 0.00 | 0.00 | 80 | 1010.7 |
| 20260505091024 | 57 | 0 | 0.0 | 1.0 | 0.00 | 0.00 | 0.00 | 80 | 1010.8 |
| 20260505090525 | 57 | 0 | 0.0 | 2.0 | 0.00 | 0.00 | 0.00 | 80 | 1010.8 |
| 20260505090036 | 57 | 0 | 0.0 | 2.0 | 0.00 | 0.00 | 0.00 | 80 | 1010.9 |
| 20260505085527 | 57 | 0 | 0.0 | 2.0 | 0.00 | 0.00 | 0.00 | 80 | 1010.9 |
| 20260505085026 | 57 | 0 | 0.0 | 1.0 | 0.00 | 0.00 | 0.00 | 80 | 1010.9 |
| 20260505084546 | 57 | 0 | 0.0 | 1.0 | 0.00 | 0.00 | 0.00 | 80 | 1010.9 |
| 20260505084025 | 57 | 0 | 0.0 | 2.0 | 0.00 | 0.00 | 0.00 | 80 | 1011.0 |
| 20260505083525 | 57 | 0 | 0.0 | 3.0 | 0.00 | 0.00 | 0.00 | 81 | 1010.9 |
| 20260505083041 | 57 | 0 | 0.0 | 3.0 | 0.00 | 0.00 | 0.00 | 80 | 1010.8 |
| 20260505082525 | 57 | 178 | 0.0 | 2.0 | 0.00 | 0.00 | 0.00 | 80 | 1010.9 |
| 20260505082025 | 57 | 164 | 0.0 | 2.0 | 0.00 | 0.00 | 0.00 | 80 | 1011.0 |
| 20260505081535 | 57 | 0 | 0.0 | 3.0 | 0.00 | 0.00 | 0.00 | 80 | 1011.0 |
| 20260505081026 | 57 | 0 | 0.0 | 4.0 | 0.00 | 0.00 | 0.00 | 80 | 1011.0 |
| 20260505080525 | 57 | 183 | 1.0 | 4.0 | 0.00 | 0.00 | 0.00 | 80 | 1010.9 |
| 20260505080037 | 57 | 170 | 0.0 | 2.0 | 0.00 | 0.00 | 0.00 | 79 | 1011.0 |
| 20260505075524 | 57 | 0 | 0.0 | 5.0 | 0.00 | 0.00 | 0.00 | 79 | 1011.0 |
| 20260505075025 | 57 | 194 | 1.0 | 5.0 | 0.00 | 0.00 | 0.00 | 79 | 1010.9 |
| 20260505074537 | 57 | 169 | 1.0 | 5.0 | 0.00 | 0.00 | 0.00 | 78 | 1011.0 |
| 20260505074022 | 57 | 165 | 0.0 | 3.0 | 0.00 | 0.00 | 0.00 | 77 | 1010.9 |
| 20260505073522 | 57 | 0 | 0.0 | 3.0 | 0.00 | 0.00 | 0.00 | 77 | 1010.9 |
| 20260505073044 | 57 | 0 | 0.0 | 4.0 | 0.00 | 0.00 | 0.00 | 76 | 1010.9 |
| 20260505072525 | 58 | 179 | 1.0 | 4.0 | 0.00 | 0.00 | 0.00 | 76 | 1010.8 |
| 20260505072027 | 58 | 182 | 0.0 | 4.0 | 0.00 | 0.00 | 0.00 | 76 | 1010.8 |
| 20260505071537 | 58 | 0 | 0.0 | 4.0 | 0.00 | 0.00 | 0.00 | 76 | 1010.7 |
| 20260505071026 | 58 | 200 | 0.0 | 5.0 | 0.00 | 0.00 | 0.00 | 76 | 1010.8 |
| 20260505070525 | 58 | 0 | 1.0 | 5.0 | 0.00 | 0.00 | 0.00 | 76 | 1010.7 |
| 20260505070049 | 58 | 182 | 1.0 | 5.0 | 0.00 | 0.00 | 0.00 | 76 | 1010.6 |
| 20260505065525 | 58 | 159 | 1.0 | 7.0 | 0.00 | 0.00 | 0.00 | 76 | 1010.5 |
| 20260505065024 | 58 | 136 | 2.0 | 7.0 | 0.00 | 0.00 | 0.00 | 76 | 1010.6 |
| 20260505064537 | 58 | 175 | 2.0 | 6.0 | 0.00 | 0.00 | 0.00 | 76 | 1010.5 |
| 20260505064024 | 58 | 168 | 2.0 | 6.0 | 0.00 | 0.00 | 0.00 | 75 | 1010.6 |
| 20260505063524 | 58 | 171 | 2.0 | 6.0 | 0.00 | 0.00 | 0.00 | 75 | 1010.7 |
| 20260505063043 | 58 | 222 | 2.0 | 6.0 | 0.00 | 0.00 | 0.00 | 75 | 1010.7 |
| 20260505062526 | 58 | 170 | 1.0 | 4.0 | 0.00 | 0.00 | 0.00 | 74 | 1010.7 |
| 20260505062025 | 58 | 180 | 2.0 | 6.0 | 0.00 | 0.00 | 0.00 | 74 | 1010.7 |
| 20260505061541 | 58 | 182 | 1.0 | 6.0 | 0.00 | 0.00 | 0.00 | 74 | 1010.8 |
| 20260505061025 | 58 | 171 | 1.0 | 7.0 | 0.00 | 0.00 | 0.00 | 73 | 1010.8 |
| 20260505060526 | 59 | 152 | 1.0 | 7.0 | 0.00 | 0.00 | 0.00 | 73 | 1010.9 |
| 20260505060037 | 59 | 161 | 2.0 | 6.0 | 0.00 | 0.00 | 0.00 | 73 | 1010.8 |
| 20260505055525 | 59 | 0 | 1.0 | 5.0 | 0.00 | 0.00 | 0.00 | 73 | 1010.9 |
| 20260505055026 | 59 | 190 | 1.0 | 5.0 | 0.00 | 0.00 | 0.00 | 72 | 1010.8 |
| 20260505054539 | 59 | 175 | 1.0 | 5.0 | 0.00 | 0.00 | 0.00 | 72 | 1010.8 |
| 20260505054025 | 59 | 182 | 1.0 | 6.0 | 0.00 | 0.00 | 0.00 | 72 | 1010.8 |
| 20260505053529 | 59 | 138 | 1.0 | 6.0 | 0.00 | 0.00 | 0.00 | 72 | 1010.9 |
| 20260505053054 | 59 | 0 | 1.0 | 6.0 | 0.00 | 0.00 | 0.00 | 71 | 1010.8 |
| 20260505052941 | 59 | 176 | 1.0 | 6.0 | 0.00 | 0.00 | 0.00 | 71 | 1010.9 |
| 20260505052525 | 59 | 176 | 1.0 | 6.0 | 0.00 | 0.00 | 0.00 | 71 | 1010.9 |
| 20260505052025 | 59 | 186 | 1.0 | 6.0 | 0.00 | 0.00 | 0.00 | 70 | 1011.0 |
| 20260505051538 | 60 | 0 | 2.0 | 6.0 | 0.00 | 0.00 | 0.00 | 70 | 1010.9 |
| 20260505051053 | 60 | 171 | 1.0 | 6.0 | 0.00 | 0.00 | 0.00 | 70 | 1010.9 |
| 20260505050526 | 60 | 184 | 2.0 | 6.0 | 0.00 | 0.00 | 0.00 | 70 | 1011.0 |
| 20260505041551 | 60 | 167 | 2.0 | 7.0 | 0.00 | 0.00 | 0.00 | 67 | 1011.1 |
| 20260505041024 | 61 | 0 | 2.0 | 7.0 | 0.00 | 0.00 | 0.00 | 67 | 1011.0 |
| 20260505040526 | 61 | 119 | 3.0 | 7.0 | 0.00 | 0.00 | 0.00 | 67 | 1010.9 |
| 20260505040050 | 61 | 167 | 2.0 | 6.0 | 0.00 | 0.00 | 0.00 | 67 | 1011.0 |
| 20260505035521 | 61 | 252 | 2.0 | 6.0 | 0.00 | 0.00 | 0.00 | 67 | 1011.0 |
| 20260505035025 | 61 | 144 | 1.0 | 8.0 | 0.00 | 0.00 | 0.00 | 67 | 1011.1 |
| 20260505034535 | 61 | 155 | 3.0 | 8.0 | 0.00 | 0.00 | 0.00 | 66 | 1011.1 |
| 20260505034025 | 61 | 153 | 3.0 | 7.0 | 0.00 | 0.00 | 0.00 | 66 | 1011.0 |
| 20260505033525 | 61 | 184 | 3.0 | 8.0 | 0.00 | 0.00 | 0.00 | 67 | 1010.9 |
| 20260505033035 | 61 | 168 | 2.0 | 8.0 | 0.00 | 0.00 | 0.00 | 67 | 1011.1 |
| 20260505032525 | 60 | 181 | 2.0 | 8.0 | 0.00 | 0.00 | 0.00 | 67 | 1011.2 |
| 20260505032025 | 60 | 151 | 2.0 | 8.0 | 0.00 | 0.00 | 0.00 | 68 | 1011.1 |
| 20260505031545 | 59 | 161 | 1.0 | 6.0 | 0.00 | 0.00 | 0.00 | 68 | 1011.2 |
| 20260505031024 | 59 | 180 | 0.0 | 4.0 | 0.00 | 0.00 | 0.00 | 68 | 1011.2 |
| 20260505030525 | 59 | 159 | 0.0 | 2.0 | 0.00 | 0.00 | 0.00 | 68 | 1011.1 |
| 20260505030043 | 58 | 157 | 0.0 | 1.0 | 0.00 | 0.00 | 0.00 | 68 | 1011.3 |
| 20260505025524 | 59 | 0 | 0.0 | 1.0 | 0.00 | 0.00 | 0.00 | 67 | 1011.1 |
| 20260505025024 | 59 | 0 | 0.0 | 1.0 | 0.00 | 0.00 | 0.00 | 67 | 1011.3 |
| 20260505024547 | 59 | 0 | 0.0 | 2.0 | 0.00 | 0.00 | 0.00 | 66 | 1011.4 |
| 20260505024025 | 60 | 0 | 0.0 | 2.0 | 0.00 | 0.00 | 0.00 | 65 | 1011.3 |
| 20260505023525 | 60 | 151 | 0.0 | 2.0 | 0.00 | 0.00 | 0.00 | 65 | 1011.3 |
| 20260505023038 | 60 | 0 | 0.0 | 2.0 | 0.00 | 0.00 | 0.00 | 64 | 1011.2 |
| 20260505022525 | 60 | 0 | 0.0 | 3.0 | 0.00 | 0.00 | 0.00 | 63 | 1011.3 |
| 20260505022025 | 61 | 0 | 0.0 | 5.0 | 0.00 | 0.00 | 0.00 | 62 | 1011.3 |
| 20260505021538 | 61 | 0 | 1.0 | 5.0 | 0.00 | 0.00 | 0.00 | 61 | 1011.4 |
| 20260505021024 | 61 | 132 | 1.0 | 5.0 | 0.00 | 0.00 | 0.00 | 60 | 1011.5 |
| 20260505020524 | 62 | 153 | 2.0 | 5.0 | 0.00 | 0.00 | 0.00 | 59 | 1011.4 |
| 20260505020034 | 62 | 161 | 1.0 | 5.0 | 0.00 | 0.00 | 0.00 | 59 | 1011.4 |
| 20260505015525 | 62 | 180 | 1.0 | 5.0 | 0.00 | 0.00 | 0.00 | 58 | 1011.4 |
| 20260505015026 | 62 | 155 | 1.0 | 5.0 | 0.00 | 0.00 | 0.00 | 57 | 1011.4 |
| 20260505014601 | 62 | 169 | 1.0 | 5.0 | 0.00 | 0.00 | 0.00 | 56 | 1011.4 |
| 20260505014022 | 63 | 0 | 1.0 | 5.0 | 0.00 | 0.00 | 0.00 | 55 | 1011.4 |
| 20260505013524 | 63 | 148 | 1.0 | 5.0 | 0.00 | 0.00 | 0.00 | 54 | 1011.4 |
| 20260505013041 | 63 | 146 | 1.0 | 5.0 | 0.00 | 0.00 | 0.00 | 53 | 1011.2 |
| 20260505012524 | 63 | 151 | 2.0 | 6.0 | 0.00 | 0.00 | 0.00 | 52 | 1011.3 |
| 20260505012025 | 63 | 0 | 1.0 | 6.0 | 0.00 | 0.00 | 0.00 | 51 | 1011.3 |
| 20260505011536 | 63 | 151 | 2.0 | 6.0 | 0.00 | 0.00 | 0.00 | 50 | 1011.2 |
| 20260505011027 | 63 | 148 | 1.0 | 3.0 | 0.00 | 0.00 | 0.00 | 51 | 1011.2 |
| 20260505010525 | 63 | 0 | 0.0 | 2.0 | 0.00 | 0.00 | 0.00 | 52 | 1010.9 |
| 20260505010035 | 64 | 176 | 0.0 | 2.0 | 0.00 | 0.00 | 0.00 | 50 | 1010.7 |
| 20260505005525 | 64 | 0 | 0.0 | 2.0 | 0.00 | 0.00 | 0.00 | 49 | 1010.7 |
| 20260505005024 | 65 | 176 | 0.0 | 2.0 | 0.00 | 0.00 | 0.00 | 47 | 1010.7 |
| 20260505004544 | 65 | 0 | 0.0 | 2.0 | 0.00 | 0.00 | 0.00 | 47 | 1010.7 |
| 20260505004026 | 65 | 0 | 0.0 | 1.0 | 0.00 | 0.00 | 0.00 | 47 | 1010.6 |
| 20260505003524 | 65 | 0 | 0.0 | 2.0 | 0.00 | 0.00 | 0.00 | 46 | 1010.6 |
| 20260505003039 | 66 | 0 | 0.0 | 2.0 | 0.00 | 0.00 | 0.00 | 45 | 1010.4 |
| 20260505002524 | 66 | 0 | 0.0 | 2.0 | 0.00 | 0.00 | 0.00 | 45 | 1010.4 |
| 20260505002025 | 67 | 0 | 0.0 | 3.0 | 0.00 | 0.00 | 0.00 | 44 | 1010.5 |
| 20260505001536 | 67 | 0 | 0.0 | 4.0 | 0.00 | 0.00 | 0.00 | 43 | 1010.4 |
| 20260505001023 | 67 | 180 | 0.0 | 5.0 | 0.00 | 0.00 | 0.00 | 43 | 1010.2 |
| 20260505000529 | 68 | 182 | 1.0 | 5.0 | 0.00 | 0.00 | 0.00 | 42 | 1010.3 |
| 20260505000048 | 68 | 164 | 2.0 | 6.0 | 0.00 | 0.00 | 0.00 | 42 | 1010.2 |
| 20260504235525 | 68 | 157 | 0.0 | 6.0 | 0.00 | 0.00 | 0.00 | 42 | 1010.2 |
| 20260504235025 | 68 | 182 | 2.0 | 6.0 | 0.00 | 0.00 | 0.00 | 41 | 1010.2 |
| 20260504234542 | 69 | 169 | 2.0 | 8.0 | 0.00 | 0.00 | 0.00 | 41 | 1010.1 |
| 20260504234025 | 69 | 190 | 2.0 | 9.0 | 0.00 | 0.00 | 0.00 | 41 | 1010.0 |
| 20260504233524 | 69 | 186 | 3.0 | 9.0 | 0.00 | 0.00 | 0.00 | 40 | 1010.0 |
| 20260504233052 | 69 | 175 | 2.0 | 8.0 | 0.00 | 0.00 | 0.00 | 40 | 1010.0 |
| 20260504232524 | 69 | 153 | 2.0 | 8.0 | 0.00 | 0.00 | 0.00 | 40 | 1010.0 |
| 20260504232025 | 70 | 268 | 2.0 | 9.0 | 0.00 | 0.00 | 0.00 | 39 | 1010.0 |
| 20260504231543 | 70 | 167 | 2.0 | 9.0 | 0.00 | 0.00 | 0.00 | 38 | 1009.9 |
| 20260504231027 | 70 | 164 | 3.0 | 8.0 | 0.00 | 0.00 | 0.00 | 38 | 1010.0 |
| 20260504230524 | 70 | 198 | 3.0 | 7.0 | 0.00 | 0.00 | 0.00 | 38 | 1009.9 |
| 20260504230040 | 70 | 195 | 1.0 | 9.0 | 0.00 | 0.00 | 0.00 | 38 | 1009.9 |
| 20260504225524 | 70 | 210 | 3.0 | 10.0 | 0.00 | 0.00 | 0.00 | 38 | 1009.9 |
| 20260504225023 | 70 | 171 | 3.0 | 11.0 | 0.00 | 0.00 | 0.00 | 38 | 1009.9 |
| 20260504224540 | 70 | 222 | 3.0 | 11.0 | 0.00 | 0.00 | 0.00 | 37 | 1009.9 |
| 20260504224024 | 70 | 234 | 3.0 | 12.0 | 0.00 | 0.00 | 0.00 | 38 | 1009.9 |
| 20260504223525 | 70 | 198 | 2.0 | 13.0 | 0.00 | 0.00 | 0.00 | 38 | 1010.0 |
| 20260504223053 | 70 | 133 | 3.0 | 13.0 | 0.00 | 0.00 | 0.00 | 38 | 1009.9 |
| 20260504222525 | 71 | 226 | 1.0 | 12.0 | 0.00 | 0.00 | 0.00 | 38 | 1010.0 |
| 20260504222024 | 71 | 184 | 3.0 | 12.0 | 0.00 | 0.00 | 0.00 | 37 | 1009.9 |
| 20260504221538 | 71 | 163 | 3.0 | 9.0 | 0.00 | 0.00 | 0.00 | 36 | 1010.0 |
| 20260504221025 | 71 | 217 | 1.0 | 13.0 | 0.00 | 0.00 | 0.00 | 37 | 1009.8 |
| 20260504220527 | 71 | 206 | 4.0 | 13.0 | 0.00 | 0.00 | 0.00 | 37 | 1010.0 |
| 20260504220042 | 71 | 168 | 3.0 | 12.0 | 0.00 | 0.00 | 0.00 | 37 | 1010.0 |
| 20260504215524 | 71 | 198 | 4.0 | 12.0 | 0.00 | 0.00 | 0.00 | 36 | 1010.1 |
| 20260504215023 | 71 | 205 | 3.0 | 11.0 | 0.00 | 0.00 | 0.00 | 36 | 1010.1 |
| 20260504214535 | 71 | 158 | 4.0 | 11.0 | 0.00 | 0.00 | 0.00 | 35 | 1010.0 |
| 20260504214026 | 71 | 238 | 2.0 | 11.0 | 0.00 | 0.00 | 0.00 | 36 | 1010.1 |
| 20260504213525 | 71 | 171 | 3.0 | 11.0 | 0.00 | 0.00 | 0.00 | 37 | 1010.1 |
| 20260504213049 | 71 | 151 | 4.0 | 10.0 | 0.00 | 0.00 | 0.00 | 37 | 1010.1 |
| 20260504212521 | 71 | 220 | 2.0 | 10.0 | 0.00 | 0.00 | 0.00 | 36 | 1010.2 |
| 20260504212025 | 72 | 178 | 2.0 | 13.0 | 0.00 | 0.00 | 0.00 | 36 | 1010.2 |